Pagina principale
METAR-TAF:

METAR-TAF

Aeroporti :

Aeroporto di Sarh

Sarh, Ciad

latitudine: 09-09N, longitudine: 018-23E, altezza: 365 m

Osservazione

Il bollettino è stato emesso 1 ora e 4 minuti fa, alle 22:00 UTC
Vento calmo
Temperature 20°C
Umidità 46%
Pressione 1014 hPa
Visibilità 10 km o più
nessuna nube inferiore a 1500 m e nessun cumulonembo

METAR: FTTA 222200Z 00000KT CAVOK 20/08 Q1014

Ora: 00:04 (23:04 UTC)


TAF: mancante

Osservazioni e previsioni meteorologiche di più di 4000 aeroporti (messaggi METAR e TAF).

Le stazioni disponibili sono rappresentate dai dischi gialli e rossi sulla carta.

Puntare il mouse per vedere il nome della stazione.

Clicca sopra per visualizzare le osservazioni e previsioni meteorologiche.

Per cambiare la mappa : fare clic sui pulsanti verdi con una croce nera per ingrandire, il pulsante verde con un trattino per diminuire, o sulla freccia verde per le mappe adiacenti.


METAR-TAF: